| time (UTC) | temp F | wind direction | speed knots | gust knots | rain 1hr in | rain 24hr in | rain mn in | humidity % | barometer mb |
| 20260507143038 | 60 | 0 | 0.0 | 0.0 | 0.00 | 0.00 | 0.00 | 84 | 1017.8 |
| 20260507142511 | 59 | 0 | 0.0 | 0.0 | 0.00 | 0.00 | 0.00 | 85 | 1017.8 |
| 20260507142024 | 58 | 0 | 0.0 | 0.0 | 0.00 | 0.00 | 0.00 | 87 | 1017.7 |
| 20260507141546 | 58 | 0 | 0.0 | 0.0 | 0.00 | 0.00 | 0.00 | 88 | 1017.8 |
| 20260507141010 | 57 | 0 | 0.0 | 0.0 | 0.00 | 0.00 | 0.00 | 88 | 1017.6 |
| 20260507140510 | 56 | 0 | 0.0 | 0.0 | 0.00 | 0.00 | 0.00 | 89 | 1017.8 |
| 20260507140034 | 56 | 0 | 0.0 | 0.0 | 0.00 | 0.00 | 0.00 | 90 | 1017.7 |
| 20260507135510 | 55 | 0 | 0.0 | 0.0 | 0.00 | 0.00 | 0.00 | 89 | 1017.6 |
| 20260507135015 | 55 | 0 | 0.0 | 0.0 | 0.00 | 0.00 | 0.00 | 90 | 1017.5 |
| 20260507134535 | 54 | 0 | 0.0 | 0.0 | 0.00 | 0.00 | 0.00 | 90 | 1017.5 |
| 20260507134014 | 54 | 0 | 0.0 | 0.9 | 0.00 | 0.00 | 0.00 | 91 | 1017.4 |
| 20260507133511 | 54 | 0 | 0.0 | 0.9 | 0.00 | 0.00 | 0.00 | 91 | 1017.3 |
| 20260507133057 | 54 | 0 | 0.0 | 0.0 | 0.00 | 0.00 | 0.00 | 90 | 1017.1 |
| 20260507132520 | 54 | 0 | 0.0 | 1.7 | 0.00 | 0.00 | 0.00 | 90 | 1017.1 |
| 20260507132012 | 54 | 0 | 0.0 | 1.7 | 0.00 | 0.00 | 0.00 | 90 | 1017.1 |
| 20260507131530 | 54 | 0 | 0.0 | 1.7 | 0.00 | 0.00 | 0.00 | 90 | 1017.1 |
| 20260507131010 | 54 | 0 | 0.0 | 0.0 | 0.00 | 0.00 | 0.00 | 90 | 1017.1 |
| 20260507130512 | 54 | 0 | 0.0 | 0.0 | 0.00 | 0.00 | 0.00 | 90 | 1017.1 |
| 20260507130036 | 54 | 0 | 0.0 | 1.7 | 0.00 | 0.00 | 0.00 | 90 | 1017.0 |
| 20260507125514 | 54 | 0 | 0.0 | 1.7 | 0.00 | 0.00 | 0.00 | 90 | 1017.0 |
| 20260507125013 | 54 | 95 | 0.9 | 1.7 | 0.00 | 0.00 | 0.00 | 90 | 1017.0 |
| 20260507124530 | 54 | 0 | 0.0 | 1.7 | 0.00 | 0.00 | 0.00 | 90 | 1017.0 |
| 20260507124013 | 54 | 0 | 0.0 | 0.9 | 0.00 | 0.00 | 0.00 | 90 | 1017.0 |
| 20260507123518 | 54 | 0 | 0.0 | 2.6 | 0.00 | 0.00 | 0.00 | 90 | 1017.0 |
| 20260507123038 | 54 | 95 | 0.9 | 2.6 | 0.00 | 0.00 | 0.00 | 90 | 1016.9 |
| 20260507122513 | 53 | 95 | 0.9 | 2.6 | 0.00 | 0.00 | 0.00 | 89 | 1017.0 |
| 20260507122014 | 54 | 95 | 0.0 | 2.6 | 0.00 | 0.00 | 0.00 | 89 | 1017.0 |
| 20260507121534 | 54 | 0 | 0.0 | 0.0 | 0.00 | 0.00 | 0.00 | 89 | 1016.9 |
| 20260507121011 | 54 | 0 | 0.0 | 0.0 | 0.00 | 0.00 | 0.00 | 89 | 1017.0 |
| 20260507120511 | 54 | 0 | 0.0 | 0.0 | 0.00 | 0.00 | 0.00 | 88 | 1016.9 |
| 20260507120035 | 54 | 0 | 0.0 | 0.0 | 0.00 | 0.00 | 0.00 | 88 | 1016.9 |
| 20260507115510 | 54 | 0 | 0.0 | 0.0 | 0.00 | 0.00 | 0.00 | 89 | 1016.9 |
| 20260507115013 | 55 | 0 | 0.0 | 0.0 | 0.00 | 0.00 | 0.00 | 88 | 1017.0 |
| 20260507114537 | 55 | 0 | 0.0 | 0.0 | 0.00 | 0.00 | 0.00 | 88 | 1017.0 |
| 20260507114014 | 55 | 0 | 0.0 | 0.0 | 0.00 | 0.00 | 0.00 | 88 | 1016.9 |
| 20260507113514 | 55 | 0 | 0.0 | 0.0 | 0.00 | 0.00 | 0.00 | 88 | 1016.8 |
| 20260507113034 | 56 | 0 | 0.0 | 0.0 | 0.00 | 0.00 | 0.00 | 88 | 1016.9 |
| 20260507112514 | 56 | 0 | 0.0 | 0.0 | 0.00 | 0.00 | 0.00 | 88 | 1017.0 |
| 20260507112018 | 56 | 0 | 0.0 | 0.0 | 0.00 | 0.00 | 0.00 | 88 | 1017.1 |
| 20260507111532 | 56 | 0 | 0.0 | 0.0 | 0.00 | 0.00 | 0.00 | 88 | 1017.2 |
| 20260507111013 | 56 | 0 | 0.0 | 0.0 | 0.00 | 0.00 | 0.00 | 88 | 1017.2 |
| 20260507110513 | 56 | 0 | 0.0 | 0.0 | 0.00 | 0.00 | 0.00 | 89 | 1017.1 |
| 20260507110039 | 55 | 0 | 0.0 | 0.0 | 0.00 | 0.00 | 0.00 | 88 | 1017.2 |
| 20260507105511 | 55 | 0 | 0.0 | 0.0 | 0.00 | 0.00 | 0.00 | 88 | 1017.3 |
| 20260507105011 | 55 | 0 | 0.0 | 0.0 | 0.00 | 0.00 | 0.00 | 88 | 1017.4 |
| 20260507104534 | 55 | 0 | 0.0 | 0.0 | 0.00 | 0.00 | 0.00 | 88 | 1017.3 |
| 20260507104014 | 56 | 0 | 0.0 | 0.0 | 0.00 | 0.00 | 0.00 | 88 | 1017.3 |
| 20260507103513 | 56 | 0 | 0.0 | 0.0 | 0.00 | 0.00 | 0.00 | 87 | 1017.3 |
| 20260507103039 | 56 | 0 | 0.0 | 0.0 | 0.00 | 0.00 | 0.00 | 87 | 1017.3 |
| 20260507102511 | 56 | 0 | 0.0 | 2.6 | 0.00 | 0.00 | 0.00 | 87 | 1017.2 |
| 20260507102017 | 56 | 0 | 0.0 | 2.6 | 0.00 | 0.00 | 0.00 | 87 | 1017.3 |
| 20260507101536 | 56 | 95 | 0.9 | 2.6 | 0.00 | 0.00 | 0.00 | 86 | 1017.2 |
| 20260507101011 | 56 | 84 | 0.9 | 1.7 | 0.00 | 0.00 | 0.00 | 87 | 1017.3 |
| 20260507100509 | 56 | 0 | 0.9 | 1.7 | 0.00 | 0.00 | 0.00 | 86 | 1017.1 |
| 20260507100036 | 56 | 0 | 0.9 | 3.5 | 0.00 | 0.00 | 0.00 | 86 | 1017.2 |
| 20260507095516 | 56 | 83 | 0.0 | 3.5 | 0.00 | 0.00 | 0.00 | 86 | 1017.3 |
| 20260507095014 | 56 | 80 | 1.7 | 3.5 | 0.00 | 0.00 | 0.00 | 86 | 1017.3 |
| 20260507094537 | 56 | 86 | 0.9 | 2.6 | 0.00 | 0.00 | 0.00 | 87 | 1017.3 |
| 20260507094020 | 56 | 86 | 0.0 | 1.7 | 0.00 | 0.00 | 0.00 | 86 | 1017.4 |
| 20260507093515 | 56 | 0 | 0.9 | 3.5 | 0.00 | 0.00 | 0.00 | 86 | 1017.4 |
| 20260507093032 | 56 | 86 | 0.9 | 3.5 | 0.00 | 0.00 | 0.00 | 86 | 1017.4 |
| 20260507092513 | 57 | 99 | 1.7 | 3.5 | 0.00 | 0.00 | 0.00 | 86 | 1017.4 |
| 20260507092013 | 57 | 103 | 0.0 | 1.7 | 0.00 | 0.00 | 0.00 | 86 | 1017.5 |
| 20260507091535 | 57 | 0 | 0.0 | 1.7 | 0.00 | 0.00 | 0.00 | 86 | 1017.5 |
| 20260507091011 | 57 | 103 | 0.0 | 5.2 | 0.00 | 0.00 | 0.00 | 86 | 1017.6 |
| 20260507090512 | 57 | 103 | 0.9 | 5.2 | 0.00 | 0.00 | 0.00 | 86 | 1017.7 |
| 20260507090030 | 57 | 96 | 0.0 | 1.7 | 0.00 | 0.00 | 0.00 | 87 | 1017.8 |
| 20260507085510 | 57 | 0 | 0.0 | 1.7 | 0.00 | 0.00 | 0.00 | 87 | 1017.8 |
| 20260507085013 | 57 | 0 | 0.0 | 2.6 | 0.00 | 0.00 | 0.00 | 87 | 1017.9 |
| 20260507084538 | 57 | 96 | 0.0 | 2.6 | 0.00 | 0.00 | 0.00 | 88 | 1018.0 |
| 20260507084012 | 57 | 96 | 0.0 | 3.5 | 0.00 | 0.00 | 0.00 | 88 | 1018.0 |
| 20260507083511 | 57 | 0 | 0.0 | 3.5 | 0.00 | 0.00 | 0.00 | 88 | 1018.0 |
| 20260507083032 | 57 | 96 | 1.7 | 3.5 | 0.00 | 0.00 | 0.00 | 88 | 1018.0 |
| 20260507082510 | 58 | 296 | 0.0 | 2.6 | 0.00 | 0.00 | 0.00 | 89 | 1018.0 |
| 20260507082014 | 58 | 0 | 0.0 | 2.6 | 0.00 | 0.00 | 0.00 | 89 | 1018.2 |
| 20260507081538 | 58 | 0 | 0.0 | 0.0 | 0.00 | 0.00 | 0.00 | 89 | 1018.2 |
| 20260507081013 | 58 | 0 | 0.0 | 0.0 | 0.00 | 0.00 | 0.00 | 89 | 1018.2 |
| 20260507080511 | 58 | 0 | 0.0 | 0.0 | 0.00 | 0.00 | 0.00 | 89 | 1018.2 |
| 20260507080031 | 58 | 0 | 0.0 | 0.0 | 0.00 | 0.00 | 0.00 | 88 | 1018.3 |
| 20260507075510 | 58 | 0 | 0.0 | 0.0 | 0.00 | 0.00 | 0.00 | 88 | 1018.2 |
| 20260507075011 | 58 | 0 | 0.0 | 0.0 | 0.00 | 0.00 | 0.00 | 88 | 1018.2 |
| 20260507074534 | 58 | 0 | 0.0 | 0.0 | 0.00 | 0.00 | 0.00 | 88 | 1018.1 |
| 20260507074013 | 58 | 0 | 0.0 | 0.0 | 0.00 | 0.00 | 0.00 | 87 | 1018.1 |
| 20260507073511 | 58 | 0 | 0.0 | 0.0 | 0.00 | 0.00 | 0.00 | 86 | 1018.1 |
| 20260507073032 | 59 | 0 | 0.0 | 0.0 | 0.00 | 0.00 | 0.00 | 87 | 1018.1 |
| 20260507072513 | 59 | 0 | 0.0 | 0.0 | 0.00 | 0.00 | 0.00 | 87 | 1018.2 |
| 20260507072013 | 59 | 0 | 0.0 | 0.0 | 0.00 | 0.00 | 0.00 | 87 | 1018.2 |
| 20260507071535 | 59 | 0 | 0.0 | 0.9 | 0.00 | 0.00 | 0.00 | 87 | 1018.2 |
| 20260507071013 | 59 | 0 | 0.0 | 1.7 | 0.00 | 0.00 | 0.00 | 87 | 1018.3 |
| 20260507070510 | 59 | 0 | 0.0 | 3.5 | 0.00 | 0.00 | 0.00 | 87 | 1018.2 |
| 20260507070041 | 59 | 0 | 0.9 | 3.5 | 0.00 | 0.00 | 0.00 | 87 | 1018.4 |
| 20260507065514 | 59 | 271 | 0.0 | 2.6 | 0.00 | 0.00 | 0.00 | 86 | 1018.3 |
| 20260507065016 | 59 | 271 | 0.9 | 2.6 | 0.00 | 0.00 | 0.00 | 86 | 1018.3 |
| 20260507064535 | 59 | 271 | 1.7 | 2.6 | 0.00 | 0.00 | 0.00 | 86 | 1018.3 |
| 20260507064015 | 59 | 300 | 0.9 | 2.6 | 0.00 | 0.00 | 0.00 | 86 | 1018.4 |
| 20260507063513 | 59 | 300 | 0.9 | 2.6 | 0.00 | 0.00 | 0.00 | 85 | 1018.5 |
| 20260507063035 | 59 | 300 | 0.9 | 2.6 | 0.00 | 0.00 | 0.00 | 85 | 1018.4 |
| 20260507062511 | 59 | 0 | 0.0 | 1.7 | 0.00 | 0.00 | 0.00 | 85 | 1018.5 |
| 20260507062016 | 59 | 0 | 0.0 | 1.7 | 0.00 | 0.00 | 0.00 | 84 | 1018.5 |
| 20260507061532 | 59 | 300 | 0.0 | 1.7 | 0.00 | 0.00 | 0.00 | 84 | 1018.4 |
| 20260507061020 | 60 | 300 | 0.0 | 3.5 | 0.00 | 0.00 | 0.00 | 84 | 1018.5 |
| 20260507060511 | 60 | 0 | 0.9 | 3.5 | 0.00 | 0.00 | 0.00 | 84 | 1018.6 |
| 20260507060030 | 60 | 300 | 0.9 | 2.6 | 0.00 | 0.00 | 0.00 | 83 | 1018.6 |
| 20260507055513 | 60 | 300 | 0.9 | 2.6 | 0.00 | 0.00 | 0.00 | 82 | 1018.7 |
| 20260507055011 | 60 | 300 | 0.9 | 2.6 | 0.00 | 0.00 | 0.00 | 82 | 1018.6 |
| 20260507054533 | 60 | 0 | 0.0 | 1.7 | 0.00 | 0.00 | 0.00 | 81 | 1018.5 |
| 20260507054013 | 60 | 300 | 0.9 | 1.7 | 0.00 | 0.00 | 0.00 | 81 | 1018.5 |
| 20260507053514 | 60 | 300 | 0.0 | 1.7 | 0.00 | 0.00 | 0.00 | 81 | 1018.5 |
| 20260507053032 | 60 | 0 | 0.0 | 2.6 | 0.00 | 0.00 | 0.00 | 80 | 1018.5 |
| 20260507052513 | 61 | 300 | 0.9 | 2.6 | 0.00 | 0.00 | 0.00 | 80 | 1018.5 |
| 20260507052012 | 61 | 300 | 0.0 | 1.7 | 0.00 | 0.00 | 0.00 | 79 | 1018.5 |
| 20260507051532 | 61 | 0 | 0.0 | 0.0 | 0.00 | 0.00 | 0.00 | 79 | 1018.5 |
| 20260507051010 | 61 | 0 | 0.0 | 0.0 | 0.00 | 0.00 | 0.00 | 78 | 1018.5 |
| 20260507050514 | 61 | 0 | 0.0 | 0.0 | 0.00 | 0.00 | 0.00 | 78 | 1018.5 |
| 20260507050035 | 61 | 0 | 0.0 | 0.0 | 0.00 | 0.00 | 0.00 | 77 | 1018.5 |
| 20260507045510 | 61 | 0 | 0.0 | 0.0 | 0.00 | 0.00 | 0.00 | 77 | 1018.4 |
| 20260507045015 | 61 | 0 | 0.0 | 0.0 | 0.00 | 0.00 | 0.00 | 77 | 1018.4 |
| 20260507044530 | 61 | 0 | 0.0 | 0.0 | 0.00 | 0.00 | 0.00 | 77 | 1018.4 |
| 20260507044015 | 61 | 0 | 0.0 | 0.9 | 0.00 | 0.00 | 0.00 | 77 | 1018.4 |
| 20260507043514 | 61 | 0 | 0.0 | 1.7 | 0.00 | 0.00 | 0.00 | 77 | 1018.5 |
| 20260507043031 | 61 | 0 | 0.0 | 2.6 | 0.00 | 0.00 | 0.00 | 77 | 1018.5 |
| 20260507042513 | 61 | 300 | 0.0 | 2.6 | 0.00 | 0.00 | 0.00 | 77 | 1018.5 |
| 20260507042021 | 61 | 300 | 0.0 | 2.6 | 0.00 | 0.00 | 0.00 | 78 | 1018.4 |
| 20260507041530 | 61 | 300 | 0.9 | 5.2 | 0.00 | 0.00 | 0.00 | 78 | 1018.5 |
| 20260507041015 | 61 | 300 | 0.9 | 5.2 | 0.00 | 0.00 | 0.00 | 78 | 1018.3 |
| 20260507040514 | 61 | 285 | 2.6 | 5.2 | 0.00 | 0.00 | 0.00 | 78 | 1018.3 |
| 20260507040037 | 61 | 286 | 0.9 | 3.5 | 0.00 | 0.00 | 0.00 | 77 | 1018.4 |
| 20260507035517 | 61 | 286 | 0.9 | 3.5 | 0.00 | 0.00 | 0.00 | 77 | 1018.3 |
| 20260507035014 | 61 | 292 | 0.0 | 3.5 | 0.00 | 0.00 | 0.00 | 76 | 1018.2 |
| 20260507034539 | 61 | 295 | 0.9 | 3.5 | 0.00 | 0.00 | 0.00 | 76 | 1018.2 |
| 20260507034010 | 61 | 281 | 0.9 | 3.5 | 0.00 | 0.00 | 0.00 | 76 | 1018.2 |
| 20260507033513 | 61 | 0 | 0.0 | 5.2 | 0.00 | 0.00 | 0.00 | 76 | 1018.0 |
| 20260507033044 | 61 | 269 | 1.7 | 6.1 | 0.00 | 0.00 | 0.00 | 76 | 1018.0 |
| 20260507032513 | 61 | 244 | 1.7 | 6.1 | 0.00 | 0.00 | 0.00 | 77 | 1018.0 |
| 20260507032017 | 61 | 287 | 1.7 | 7.0 | 0.00 | 0.00 | 0.00 | 79 | 1017.9 |
| 20260507031545 | 61 | 275 | 2.6 | 7.0 | 0.00 | 0.00 | 0.00 | 79 | 1017.8 |
| 20260507031016 | 62 | 269 | 3.5 | 7.0 | 0.00 | 0.00 | 0.00 | 78 | 1017.8 |
| 20260507030512 | 62 | 287 | 1.7 | 7.8 | 0.00 | 0.00 | 0.00 | 77 | 1017.9 |
| 20260507030033 | 62 | 300 | 2.6 | 7.8 | 0.00 | 0.00 | 0.00 | 77 | 1017.8 |
| 20260507025513 | 62 | 260 | 1.7 | 8.7 | 0.00 | 0.00 | 0.00 | 78 | 1017.7 |
| 20260507025018 | 62 | 304 | 3.5 | 8.7 | 0.00 | 0.00 | 0.00 | 79 | 1017.7 |
| 20260507024536 | 62 | 288 | 2.6 | 7.0 | 0.00 | 0.00 | 0.00 | 81 | 1017.5 |
| 20260507024013 | 62 | 274 | 1.7 | 7.8 | 0.00 | 0.00 | 0.00 | 81 | 1017.5 |
| 20260507023515 | 62 | 0 | 1.7 | 7.8 | 0.00 | 0.00 | 0.00 | 81 | 1017.6 |
| 20260507023030 | 62 | 287 | 3.5 | 7.0 | 0.00 | 0.00 | 0.00 | 81 | 1017.4 |
| 20260507022511 | 62 | 271 | 3.5 | 7.8 | 0.00 | 0.00 | 0.00 | 80 | 1017.4 |
| 20260507022014 | 62 | 250 | 3.5 | 7.8 | 0.00 | 0.00 | 0.00 | 80 | 1017.4 |
| 20260507021536 | 63 | 293 | 3.5 | 7.8 | 0.00 | 0.00 | 0.00 | 80 | 1017.4 |
| 20260507021010 | 63 | 284 | 1.7 | 6.1 | 0.00 | 0.00 | 0.00 | 80 | 1017.3 |
| 20260507020512 | 63 | 236 | 2.6 | 9.6 | 0.00 | 0.00 | 0.00 | 81 | 1017.3 |
| 20260507020034 | 63 | 269 | 3.5 | 10.4 | 0.00 | 0.00 | 0.00 | 81 | 1017.3 |
| 20260507015514 | 63 | 275 | 7.0 | 10.4 | 0.00 | 0.00 | 0.00 | 79 | 1017.3 |
| 20260507015011 | 64 | 232 | 4.3 | 7.8 | 0.00 | 0.00 | 0.00 | 80 | 1017.2 |
| 20260507014542 | 64 | 262 | 3.5 | 9.6 | 0.00 | 0.00 | 0.00 | 80 | 1017.2 |
| 20260507014010 | 64 | 289 | 4.3 | 9.6 | 0.00 | 0.00 | 0.00 | 81 | 1017.3 |
| 20260507013513 | 64 | 237 | 4.3 | 9.6 | 0.00 | 0.00 | 0.00 | 80 | 1017.2 |
| 20260507013036 | 64 | 255 | 4.3 | 10.4 | 0.00 | 0.00 | 0.00 | 80 | 1017.2 |
| 20260507012513 | 64 | 250 | 6.1 | 10.4 | 0.00 | 0.00 | 0.00 | 81 | 1017.2 |
| 20260507012012 | 64 | 267 | 4.3 | 13.0 | 0.00 | 0.00 | 0.00 | 81 | 1017.2 |
| 20260507011535 | 64 | 291 | 5.2 | 13.0 | 0.00 | 0.00 | 0.00 | 80 | 1017.1 |
| 20260507011013 | 64 | 254 | 6.1 | 10.4 | 0.00 | 0.00 | 0.00 | 80 | 1017.1 |
| 20260507010511 | 64 | 288 | 4.3 | 11.3 | 0.00 | 0.00 | 0.00 | 79 | 1017.1 |
| 20260507010038 | 64 | 231 | 5.2 | 12.2 | 0.00 | 0.00 | 0.00 | 79 | 1017.1 |
| 20260507005514 | 65 | 240 | 6.1 | 12.2 | 0.00 | 0.00 | 0.00 | 78 | 1017.2 |
| 20260507005019 | 65 | 238 | 3.5 | 12.2 | 0.00 | 0.00 | 0.00 | 80 | 1017.1 |
| 20260507004532 | 65 | 269 | 7.0 | 12.2 | 0.00 | 0.00 | 0.00 | 80 | 1017.1 |
| 20260507004010 | 65 | 293 | 7.0 | 12.2 | 0.00 | 0.00 | 0.00 | 79 | 1017.1 |
| 20260507003512 | 65 | 234 | 4.3 | 12.2 | 0.00 | 0.00 | 0.00 | 79 | 1017.2 |
| 20260507003033 | 65 | 245 | 7.0 | 12.2 | 0.00 | 0.00 | 0.00 | 78 | 1017.3 |
| 20260507002510 | 66 | 266 | 5.2 | 12.2 | 0.00 | 0.00 | 0.00 | 79 | 1017.2 |
| 20260507002016 | 65 | 289 | 6.1 | 12.2 | 0.00 | 0.00 | 0.00 | 78 | 1017.1 |
| 20260507001535 | 65 | 277 | 6.1 | 13.0 | 0.00 | 0.00 | 0.00 | 78 | 1017.0 |
| 20260507001012 | 65 | 275 | 7.0 | 13.0 | 0.00 | 0.00 | 0.00 | 79 | 1017.1 |
| 20260507000514 | 66 | 265 | 6.1 | 12.2 | 0.00 | 0.00 | 0.00 | 79 | 1017.0 |
| 20260507000030 | 66 | 248 | 5.2 | 12.2 | 0.00 | 0.00 | 0.00 | 79 | 1017.0 |
| 20260506235516 | 66 | 284 | 6.1 | 12.2 | 0.00 | 0.00 | 0.00 | 78 | 1017.1 |
| 20260506235010 | 66 | 247 | 4.3 | 11.3 | 0.00 | 0.00 | 0.00 | 77 | 1017.1 |
| 20260506234534 | 66 | 302 | 7.0 | 13.0 | 0.00 | 0.00 | 0.00 | 74 | 1017.0 |
| 20260506234013 | 67 | 260 | 5.2 | 13.0 | 0.00 | 0.00 | 0.00 | 73 | 1017.0 |
| 20260506233513 | 67 | 271 | 4.3 | 13.0 | 0.00 | 0.00 | 0.00 | 73 | 1016.9 |
| 20260506233032 | 67 | 287 | 6.1 | 12.2 | 0.00 | 0.00 | 0.00 | 72 | 1017.0 |
| 20260506232513 | 67 | 280 | 7.0 | 13.0 | 0.00 | 0.00 | 0.00 | 71 | 1017.0 |
| 20260506232013 | 67 | 253 | 6.1 | 13.0 | 0.00 | 0.00 | 0.00 | 71 | 1016.9 |
| 20260506231533 | 68 | 269 | 7.0 | 11.3 | 0.00 | 0.00 | 0.00 | 70 | 1016.8 |
| 20260506231013 | 67 | 295 | 4.3 | 13.9 | 0.00 | 0.00 | 0.00 | 69 | 1016.9 |
| 20260506230515 | 67 | 257 | 5.2 | 13.9 | 0.00 | 0.00 | 0.00 | 69 | 1017.0 |
| 20260506230033 | 68 | 250 | 7.0 | 13.0 | 0.00 | 0.00 | 0.00 | 68 | 1017.0 |
| 20260506225515 | 68 | 241 | 6.1 | 11.3 | 0.00 | 0.00 | 0.00 | 64 | 1017.0 |
| 20260506225023 | 68 | 230 | 5.2 | 11.3 | 0.00 | 0.00 | 0.00 | 59 | 1017.1 |
| 20260506224534 | 68 | 256 | 5.2 | 11.3 | 0.00 | 0.00 | 0.00 | 56 | 1017.3 |
| 20260506224014 | 67 | 253 | 6.1 | 11.3 | 0.00 | 0.00 | 0.00 | 57 | 1017.3 |
| 20260506223514 | 67 | 242 | 5.2 | 11.3 | 0.00 | 0.00 | 0.00 | 65 | 1017.2 |
| 20260506223031 | 67 | 257 | 3.5 | 10.4 | 0.00 | 0.00 | 0.00 | 68 | 1017.3 |
| 20260506222514 | 66 | 244 | 5.2 | 10.4 | 0.00 | 0.00 | 0.00 | 71 | 1017.3 |
| 20260506222011 | 66 | 219 | 4.3 | 11.3 | 0.00 | 0.00 | 0.00 | 75 | 1017.3 |
| 20260506221530 | 65 | 261 | 6.1 | 11.3 | 0.00 | 0.00 | 0.00 | 77 | 1017.5 |
| 20260506221013 | 65 | 225 | 5.2 | 9.6 | 0.00 | 0.00 | 0.00 | 79 | 1017.5 |
| 20260506220513 | 65 | 258 | 4.3 | 12.2 | 0.00 | 0.00 | 0.00 | 78 | 1017.7 |
| 20260506220032 | 65 | 256 | 5.2 | 12.2 | 0.00 | 0.00 | 0.00 | 79 | 1017.7 |
| 20260506215513 | 64 | 243 | 5.2 | 12.2 | 0.00 | 0.00 | 0.00 | 80 | 1017.7 |
| 20260506215011 | 65 | 223 | 6.1 | 11.3 | 0.00 | 0.00 | 0.00 | 79 | 1017.8 |
| 20260506214533 | 65 | 263 | 6.1 | 11.3 | 0.00 | 0.00 | 0.00 | 78 | 1017.8 |
| 20260506214010 | 65 | 292 | 5.2 | 12.2 | 0.00 | 0.00 | 0.00 | 79 | 1017.9 |
| 20260506213513 | 65 | 215 | 6.1 | 12.2 | 0.00 | 0.00 | 0.00 | 78 | 1018.0 |
| 20260506213032 | 65 | 232 | 4.3 | 11.3 | 0.00 | 0.00 | 0.00 | 77 | 1018.1 |
| 20260506212511 | 65 | 221 | 5.2 | 12.2 | 0.00 | 0.00 | 0.00 | 78 | 1018.2 |
| 20260506212017 | 64 | 254 | 7.0 | 13.9 | 0.00 | 0.00 | 0.00 | 79 | 1018.3 |
| 20260506211531 | 65 | 242 | 5.2 | 13.9 | 0.00 | 0.00 | 0.00 | 79 | 1018.2 |
| 20260506211014 | 64 | 274 | 7.8 | 13.9 | 0.00 | 0.00 | 0.00 | 78 | 1018.3 |
| 20260506210514 | 65 | 263 | 6.1 | 12.2 | 0.00 | 0.00 | 0.00 | 77 | 1018.3 |
| 20260506210035 | 65 | 283 | 5.2 | 11.3 | 0.00 | 0.00 | 0.00 | 78 | 1018.4 |
| 20260506205513 | 64 | 280 | 6.1 | 12.2 | 0.00 | 0.00 | 0.00 | 78 | 1018.4 |
| 20260506205014 | 64 | 226 | 7.0 | 12.2 | 0.00 | 0.00 | 0.00 | 79 | 1018.4 |
| 20260506204535 | 64 | 281 | 7.0 | 14.8 | 0.00 | 0.00 | 0.00 | 78 | 1018.5 |
| 20260506204014 | 64 | 247 | 7.0 | 14.8 | 0.00 | 0.00 | 0.00 | 79 | 1018.5 |
| 20260506203513 | 64 | 254 | 6.1 | 13.0 | 0.00 | 0.00 | 0.00 | 80 | 1018.5 |
| 20260506203038 | 64 | 290 | 7.8 | 12.2 | 0.00 | 0.00 | 0.00 | 78 | 1018.5 |
| 20260506202513 | 64 | 240 | 7.0 | 13.9 | 0.00 | 0.00 | 0.00 | 77 | 1018.6 |
| 20260506202014 | 64 | 243 | 7.0 | 13.9 | 0.00 | 0.00 | 0.00 | 78 | 1018.6 |
| 20260506201536 | 64 | 285 | 5.2 | 12.2 | 0.00 | 0.00 | 0.00 | 78 | 1018.7 |
| 20260506201013 | 64 | 249 | 6.1 | 13.0 | 0.00 | 0.00 | 0.00 | 77 | 1018.8 |
| 20260506200515 | 64 | 265 | 6.1 | 13.0 | 0.00 | 0.00 | 0.00 | 78 | 1018.8 |
| 20260506200038 | 63 | 250 | 7.8 | 13.0 | 0.00 | 0.00 | 0.00 | 77 | 1018.9 |
| 20260506195510 | 64 | 229 | 6.1 | 11.3 | 0.00 | 0.00 | 0.00 | 76 | 1019.0 |
| 20260506195014 | 64 | 255 | 5.2 | 11.3 | 0.00 | 0.00 | 0.00 | 77 | 1019.0 |
| 20260506194530 | 64 | 242 | 7.0 | 12.2 | 0.00 | 0.00 | 0.00 | 76 | 1019.1 |
| 20260506194018 | 65 | 264 | 5.2 | 12.2 | 0.00 | 0.00 | 0.00 | 77 | 1019.2 |
| 20260506193510 | 64 | 263 | 6.1 | 12.2 | 0.00 | 0.00 | 0.00 | 77 | 1019.2 |
| 20260506193032 | 65 | 248 | 6.1 | 10.4 | 0.00 | 0.00 | 0.00 | 76 | 1019.2 |
| 20260506192513 | 65 | 224 | 5.2 | 10.4 | 0.00 | 0.00 | 0.00 | 76 | 1019.4 |
| 20260506192014 | 65 | 259 | 4.3 | 10.4 | 0.00 | 0.00 | 0.00 | 75 | 1019.4 |
| 20260506191535 | 65 | 315 | 2.6 | 9.6 | 0.00 | 0.00 | 0.00 | 76 | 1019.5 |
| 20260506191011 | 65 | 206 | 4.3 | 9.6 | 0.00 | 0.00 | 0.00 | 76 | 1019.6 |
| 20260506190514 | 65 | 233 | 4.3 | 9.6 | 0.00 | 0.00 | 0.00 | 76 | 1019.6 |
| 20260506190038 | 65 | 250 | 2.6 | 12.2 | 0.00 | 0.00 | 0.00 | 78 | 1019.6 |
| 20260506185512 | 65 | 248 | 4.3 | 12.2 | 0.00 | 0.00 | 0.00 | 78 | 1019.5 |
| 20260506185011 | 65 | 275 | 3.5 | 11.3 | 0.00 | 0.00 | 0.00 | 78 | 1019.7 |
| 20260506184543 | 65 | 225 | 4.3 | 8.7 | 0.00 | 0.00 | 0.00 | 77 | 1019.7 |
| 20260506184013 | 64 | 242 | 2.6 | 8.7 | 0.00 | 0.00 | 0.00 | 78 | 1019.7 |
| 20260506183514 | 64 | 175 | 5.2 | 8.7 | 0.00 | 0.00 | 0.00 | 77 | 1019.7 |
| 20260506183030 | 64 | 166 | 3.5 | 9.6 | 0.00 | 0.00 | 0.00 | 79 | 1019.7 |
| 20260506182511 | 64 | 203 | 4.3 | 9.6 | 0.00 | 0.00 | 0.00 | 78 | 1019.7 |
| 20260506182014 | 64 | 259 | 4.3 | 9.6 | 0.00 | 0.00 | 0.00 | 78 | 1019.7 |
| 20260506181534 | 64 | 273 | 2.6 | 7.8 | 0.00 | 0.00 | 0.00 | 77 | 1019.8 |
| 20260506181015 | 64 | 179 | 2.6 | 9.6 | 0.00 | 0.00 | 0.00 | 77 | 1019.8 |
| 20260506180514 | 64 | 190 | 3.5 | 10.4 | 0.00 | 0.00 | 0.00 | 76 | 1019.8 |
| 20260506180032 | 64 | 253 | 2.6 | 10.4 | 0.00 | 0.00 | 0.00 | 78 | 1019.7 |
| 20260506175514 | 64 | 234 | 3.5 | 9.6 | 0.00 | 0.00 | 0.00 | 77 | 1019.8 |
| 20260506175016 | 64 | 255 | 4.3 | 9.6 | 0.00 | 0.00 | 0.00 | 76 | 1019.6 |
| 20260506174530 | 64 | 227 | 3.5 | 7.8 | 0.00 | 0.00 | 0.00 | 75 | 1019.7 |
| 20260506174012 | 65 | 209 | 3.5 | 7.8 | 0.00 | 0.00 | 0.00 | 75 | 1019.7 |
| 20260506173512 | 65 | 160 | 2.6 | 7.0 | 0.00 | 0.00 | 0.00 | 76 | 1019.6 |
| 20260506173043 | 64 | 231 | 2.6 | 7.0 | 0.00 | 0.00 | 0.00 | 76 | 1019.6 |
| 20260506172513 | 64 | 170 | 2.6 | 7.0 | 0.00 | 0.00 | 0.00 | 74 | 1019.6 |
| 20260506172012 | 64 | 190 | 2.6 | 7.0 | 0.00 | 0.00 | 0.00 | 73 | 1019.6 |
| 20260506171532 | 64 | 181 | 2.6 | 7.8 | 0.00 | 0.00 | 0.00 | 74 | 1019.7 |
| 20260506171011 | 64 | 183 | 2.6 | 7.8 | 0.00 | 0.00 | 0.00 | 74 | 1019.7 |
| 20260506170513 | 64 | 202 | 3.5 | 7.8 | 0.00 | 0.00 | 0.00 | 76 | 1019.6 |
| 20260506170034 | 64 | 194 | 2.6 | 7.8 | 0.00 | 0.00 | 0.00 | 74 | 1019.7 |
| 20260506165514 | 64 | 169 | 2.6 | 7.0 | 0.00 | 0.00 | 0.00 | 75 | 1019.6 |
| 20260506165014 | 64 | 195 | 1.7 | 6.1 | 0.00 | 0.00 | 0.00 | 76 | 1019.7 |
| 20260506164534 | 63 | 195 | 0.9 | 7.0 | 0.00 | 0.00 | 0.00 | 76 | 1019.7 |
| 20260506164014 | 64 | 192 | 2.6 | 7.0 | 0.00 | 0.00 | 0.00 | 76 | 1019.7 |
| 20260506163511 | 64 | 232 | 2.6 | 6.1 | 0.00 | 0.00 | 0.00 | 77 | 1019.7 |
| 20260506163037 | 64 | 246 | 2.6 | 5.2 | 0.00 | 0.00 | 0.00 | 75 | 1019.7 |
| 20260506162517 | 64 | 245 | 1.7 | 6.1 | 0.00 | 0.00 | 0.00 | 77 | 1019.7 |
| 20260506162016 | 63 | 195 | 2.6 | 6.1 | 0.00 | 0.00 | 0.00 | 77 | 1019.6 |
| 20260506161532 | 63 | 234 | 1.7 | 5.2 | 0.00 | 0.00 | 0.00 | 78 | 1019.6 |
| 20260506161013 | 63 | 190 | 0.9 | 5.2 | 0.00 | 0.00 | 0.00 | 79 | 1019.6 |
| 20260506160514 | 63 | 217 | 0.9 | 5.2 | 0.00 | 0.00 | 0.00 | 78 | 1019.6 |
| 20260506160032 | 63 | 165 | 1.7 | 5.2 | 0.00 | 0.00 | 0.00 | 78 | 1019.6 |
| 20260506155513 | 63 | 151 | 2.6 | 5.2 | 0.00 | 0.00 | 0.00 | 77 | 1019.6 |
| 20260506155015 | 63 | 189 | 0.9 | 6.1 | 0.00 | 0.00 | 0.00 | 77 | 1019.5 |
| 20260506154534 | 63 | 163 | 1.7 | 6.1 | 0.00 | 0.00 | 0.00 | 76 | 1019.6 |
| 20260506154013 | 63 | 132 | 0.9 | 6.1 | 0.00 | 0.00 | 0.00 | 76 | 1019.5 |
| 20260506153514 | 63 | 150 | 0.0 | 4.3 | 0.00 | 0.00 | 0.00 | 77 | 1019.5 |
| 20260506153030 | 63 | 115 | 0.9 | 3.5 | 0.00 | 0.00 | 0.00 | 75 | 1019.5 |
| 20260506152514 | 62 | 132 | 0.9 | 3.5 | 0.00 | 0.00 | 0.00 | 75 | 1019.5 |
| 20260506152015 | 62 | 65 | 0.9 | 3.5 | 0.00 | 0.00 | 0.00 | 77 | 1019.5 |
| 20260506151534 | 61 | 65 | 0.0 | 3.5 | 0.00 | 0.00 | 0.00 | 77 | 1019.5 |
| 20260506151013 | 60 | 83 | 0.9 | 3.5 | 0.00 | 0.00 | 0.00 | 77 | 1019.5 |
| 20260506150512 | 60 | 86 | 0.9 | 4.3 | 0.00 | 0.00 | 0.00 | 77 | 1019.6 |
| 20260506150030 | 59 | 79 | 1.7 | 4.3 | 0.00 | 0.00 | 0.00 | 77 | 1019.5 |
| 20260506145514 | 59 | 79 | 1.7 | 4.3 | 0.00 | 0.00 | 0.00 | 76 | 1019.6 |
| 20260506145014 | 59 | 46 | 1.7 | 4.3 | 0.00 | 0.00 | 0.00 | 76 | 1019.5 |
| 20260506144537 | 59 | 61 | 0.9 | 4.3 | 0.00 | 0.00 | 0.00 | 77 | 1019.5 |
| 20260506144010 | 58 | 72 | 1.7 | 4.3 | 0.00 | 0.00 | 0.00 | 77 | 1019.5 |
| 20260506143517 | 58 | 77 | 0.9 | 3.5 | 0.00 | 0.00 | 0.00 | 78 | 1019.4 |